Wind_Speed
16 16 15 15 15 14 14 15 15 15 16 16 17 18 19 20 20 20 20 20 20 20 20 20 20 20 19 18 17 17 15 15 14 12 11 11 10 8 6 4 4 4 5 6
16 16 16 16 15 14 14 15 15 15 15 16 17 18 19 20 20 20 21 21 22 21 21 21 21 20 20 19 19 18 17 17 16 14 13 13 13 12 11 9 8 6 6 6
16 17 16 16 16 14 14 14 14 15 15 15 17 18 18 19 20 20 20 21 22 22 22 22 21 21 21 20 19 19 19 19 18 17 15 15 14 13 12 11 11 9 8 7
16 16 16 16 16 15 14 14 14 14 14 15 16 17 18 19 19 20 21 21 22 23 23 23 23 22 21 21 20 20 20 20 19 18 17 16 15 14 13 12 12 11 10 10
15 16 16 16 15 15 14 13 13 14 14 14 15 16 17 18 19 19 20 21 22 22 23 23 23 23 23 22 21 20 20 20 20 19 19 17 16 15 14 14 13 13 12 11
14 14 15 15 15 15 14 13 13 13 14 14 14 15 16 16 17 18 18 19 20 21 22 22 23 23 23 22 22 21 21 20 20 20 19 19 18 17 16 15 15 14 13 12
12 13 13 13 14 14 14 13 12 12 12 13 13 14 14 15 15 16 17 18 19 20 21 21 22 22 23 23 22 22 22 21 21 20 20 20 19 19 18 17 16 15 14 13
10 11 12 12 12 12 13 13 12 11 10 11 11 12 12 13 14 15 15 16 17 18 19 20 21 22 22 23 23 23 22 22 21 21 21 20 20 20 19 18 18 17 16 14
8 9 10 11 11 11 11 11 11 10 10 9 9 10 11 12 12 13 14 15 16 17 18 19 20 20 21 22 23 23 23 22 22 22 21 21 20 20 20 20 19 18 17 16
7 8 8 9 9 10 10 9 9 9 9 9 9 9 10 10 11 11 13 14 15 16 17 18 18 19 20 20 21 22 22 23 22 22 22 22 21 21 20 20 20 19 19 18
7 7 8 8 8 8 8 8 8 7 7 7 7 8 8 9 10 10 11 12 13 14 15 16 17 18 19 19 20 20 21 22 22 22 22 22 22 21 21 20 20 20 19 19
8 8 8 8 8 8 8 7 7 7 7 7 7 7 8 8 9 10 11 11 12 13 14 15 16 16 17 18 18 19 20 21 21 22 22 22 22 21 21 21 20 19 19 19
9 9 8 8 8 8 8 8 7 7 7 7 7 7 7 8 8 9 10 11 12 12 13 13 14 15 16 16 17 18 18 19 20 20 21 21 21 21 21 21 20 20 19 18
11 11 10 10 9 9 9 8 8 8 7 7 7 8 8 8 8 9 9 10 11 11 12 13 13 14 14 15 15 16 17 18 18 19 20 20 20 20 20 20 20 19 19 19
14 13 12 12 11 11 11 10 10 9 9 8 8 8 8 8 9 9 9 9 10 11 11 12 12 13 13 14 14 15 16 16 17 17 18 18 19 19 19 19 19 19 18 18
18 17 15 14 14 13 13 12 12 11 11 10 10 9 9 9 9 9 10 10 10 10 11 11 11 11 12 13 13 14 14 15 15 16 16 17 17 18 18 18 18 17 17 17
21 20 19 18 17 16 15 15 14 13 13 12 12 11 11 11 11 10 10 10 10 10 11 11 11 11 11 12 12 13 13 13 14 14 14 15 15 16 16 16 17 16 16 16
25 23 22 21 20 19 18 17 17 16 15 15 14 14 13 13 12 12 12 12 11 11 11 11 11 11 11 12 12 12 12 12 13 13 13 13 13 14 14 15 15 15 15 15
29 27 26 25 24 23 22 21 20 19 18 18 17 16 16 15 15 14 14 14 13 13 13 12 12 12 12 12 12 12 13 12 12 12 12 12 12 12 12 13 13 13 13 13
32 31 30 29 27 26 26 25 24 22 22 21 20 19 19 18 17 17 16 16 16 15 15 14 14 14 13 13 13 13 13 13 13 12 12 12 11 11 11 11 11 11 11 12
37 36 34 33 32 31 30 29 28 27 25 24 24 23 22 22 21 20 20 19 18 18 18 17 17 16 16 15 15 15 14 14 14 13 13 12 12 11 11 10 10 10 10 10
41 40 39 38 37 36 34 33 32 31 30 29 28 27 26 25 24 24 23 22 22 21 21 20 20 19 19 18 17 17 16 16 15 15 14 14 13 13 12 11 11 10 10 9
45 44 43 42 42 41 39 38 37 36 35 33 32 31 30 30 29 28 27 26 26 25 24 23 23 22 22 21 21 20 19 18 18 17 16 16 15 15 14 14 13 12 11 11
50 49 49 48 47 46 45 43 42 41 40 39 37 36 35 34 34 33 32 31 30 29 28 28 26 26 25 24 23 23 22 22 21 20 19 19 18 17 16 16 15 15 14 13
55 54 53 53 52 51 50 49 48 46 45 44 43 42 41 40 39 38 37 36 35 34 33 32 31 30 29 28 27 26 26 25 24 23 23 22 21 21 20 19 18 18 17 16
58 58 58 57 56 56 55 54 53 52 50 49 48 47 46 45 44 43 42 41 40 38 37 37 35 34 33 32 31 30 29 28 28 27 26 26 25 25 24 23 22 21 20 20
62 62 61 61 61 60 59 59 58 57 55 54 53 52 51 50 49 48 46 45 44 43 42 41 40 38 37 36 35 34 33 32 31 31 30 29 29 28 28 27 26 25 24 23
Wind_Direction
25 24 24 24 26 28 30 32 37 40 40 40 38 37 37 36 36 36 38 38 37 38 38 38 37 38 39 39 39 39 39 37 36 36 34 28 25 22 15 357 337 316 298 289
27 26 26 26 27 30 33 34 37 39 40 40 38 37 37 37 38 40 41 42 42 42 41 40 40 39 39 38 37 37 38 38 38 38 36 33 31 29 27 23 14 0 346 328
28 27 28 29 30 34 36 38 39 39 40 40 39 39 40 42 43 43 43 44 45 45 44 43 41 40 40 39 39 40 41 41 39 38 37 35 31 27 24 20 14 5 356 348
29 29 31 31 33 35 38 40 41 42 42 42 42 43 44 45 46 46 46 46 46 45 44 43 41 41 40 40 41 41 40 39 38 37 36 33 31 29 24 18 11 5 358 350
28 30 32 33 34 36 38 41 42 43 44 45 45 46 47 48 47 46 46 46 45 45 44 42 41 40 39 39 39 38 37 36 35 34 32 31 28 26 22 19 14 10 5 359
27 29 30 32 35 37 38 42 42 45 46 47 46 47 48 48 47 46 45 44 43 42 41 39 38 37 37 37 37 37 35 34 33 32 31 30 29 26 24 21 18 15 12 7
23 26 28 29 32 34 37 38 42 45 46 45 45 45 46 46 44 43 42 41 39 38 37 37 36 35 35 34 35 34 34 33 32 31 30 30 30 29 26 24 22 20 18 15
13 18 22 24 28 32 35 38 41 43 43 42 41 42 43 42 40 39 37 36 35 34 34 33 34 33 33 33 32 32 32 32 32 31 31 31 31 30 28 27 26 25 23 22
360 7 12 17 22 26 29 34 38 39 39 38 38 38 40 39 37 35 34 33 32 32 31 31 31 32 31 31 32 32 31 31 31 31 31 30 30 30 30 30 30 30 30 30
343 350 359 5 11 17 22 27 30 32 33 35 37 36 36 34 31 30 29 28 28 28 28 27 28 29 29 29 29 30 30 30 31 31 30 30 30 30 31 32 33 34 35 35
325 332 341 349 356 2 8 14 19 20 21 23 25 26 25 25 24 22 21 21 21 22 22 23 24 25 26 27 27 27 28 28 29 30 30 30 31 32 32 33 34 35 37 38
307 316 323 330 337 345 351 355 359 5 7 9 9 9 11 12 13 14 13 12 13 14 14 15 17 19 21 23 24 24 25 26 27 28 29 30 31 32 33 34 35 36 38 39
291 298 306 313 319 325 331 337 340 342 347 352 354 355 356 358 -0 3 6 9 9 10 9 9 10 12 15 17 20 21 21 23 24 26 28 29 30 32 33 34 36 38 39 40
279 286 293 300 305 309 312 316 321 324 326 330 338 343 346 348 350 351 353 356 0 3 4 6 7 8 10 12 14 16 18 19 21 24 26 28 29 30 32 34 36 38 39 41
271 276 282 288 293 296 299 301 303 305 310 314 317 323 330 337 341 344 345 345 347 351 354 357 0 2 5 7 8 10 13 15 17 20 22 25 27 29 31 32 34 36 38 40
267 270 274 279 283 286 289 291 293 294 296 300 305 309 314 319 324 329 335 337 338 339 342 346 350 353 355 358 1 3 5 8 11 14 17 21 24 26 29 31 32 34 36 38
264 266 269 272 275 277 280 282 284 286 289 291 293 298 302 306 311 316 320 325 329 331 332 335 339 343 346 347 349 353 357 1 4 7 10 14 17 21 24 27 30 32 34 36
262 264 265 267 269 271 273 276 278 280 282 284 287 289 292 296 300 304 308 312 316 320 323 324 327 331 334 338 341 343 345 349 354 358 1 4 8 12 15 19 23 26 30 32
260 261 262 264 265 267 268 270 273 275 278 280 282 284 286 288 291 294 298 301 304 309 312 315 317 320 322 324 328 333 337 338 340 344 349 353 356 360 4 8 13 17 21 25
258 259 260 261 262 264 265 267 269 271 273 276 278 280 281 283 285 287 290 293 296 299 302 305 307 310 313 315 316 318 322 326 329 331 334 338 342 346 350 354 358 4 9 14
256 257 259 259 261 262 263 265 267 268 270 272 274 276 278 280 281 283 285 287 290 291 293 295 298 300 303 306 308 310 311 312 316 319 321 323 326 329 333 337 340 344 350 356
255 256 257 258 259 261 262 263 265 267 268 270 272 274 276 277 279 280 281 283 285 287 288 289 290 292 294 296 299 301 303 304 305 307 310 312 313 314 316 318 321 324 327 332
254 255 256 257 258 260 261 262 264 265 267 268 270 272 274 275 277 278 280 281 282 283 284 284 285 286 287 288 290 291 294 296 297 297 298 300 302 304 304 305 306 307 308 309
252 254 255 256 257 259 260 261 263 264 266 267 269 271 272 274 275 276 277 279 280 280 281 281 282 282 283 284 285 285 286 287 288 290 290 291 292 294 295 296 296 296 296 296
250 252 254 255 257 258 259 261 263 264 265 266 268 269 271 272 273 275 276 277 277 278 278 278 279 279 280 280 281 281 281 281 282 283 284 285 285 286 287 289 290 289 288 288
249 251 252 254 256 257 259 260 262 263 264 266 267 268 269 270 271 272 274 274 275 275 276 276 276 276 276 276 276 277 277 278 278 278 278 279 280 280 281 282 283 283 283 283
249 250 251 253 254 256 257 259 260 262 263 264 266 267 268 269 269 270 271 272 272 273 273 274 274 274 274 274 274 274 274 274 274 274 274 275 275 276 276 277 277 278 279 279
Height
5872 5869 5865 5862 5859 5856 5854 5851 5848 5845 5842 5839 5836 5833 5829 5825 5822 5818 5814 5811 5807 5804 5801 5797 5794 5791 5788 5786 5784 5782 5780 5778 5776 5774 5773 5772 5770 5769 5768 5768 5767 5767 5767 5767
5874 5870 5867 5864 5861 5858 5856 5853 5850 5847 5845 5842 5839 5835 5832 5828 5825 5822 5818 5815 5811 5808 5804 5801 5798 5795 5792 5790 5787 5785 5783 5780 5778 5776 5775 5773 5771 5770 5769 5768 5767 5766 5765 5765
5876 5872 5869 5867 5864 5860 5858 5855 5853 5850 5848 5844 5841 5838 5835 5832 5829 5825 5822 5819 5815 5812 5809 5806 5802 5799 5797 5794 5791 5788 5786 5783 5781 5779 5777 5775 5773 5771 5770 5768 5767 5765 5764 5763
5878 5875 5872 5871 5865 5863 5860 5858 5855 5852 5850 5847 5844 5842 5838 5835 5832 5829 5826 5823 5820 5817 5813 5810 5807 5804 5801 5798 5795 5792 5789 5787 5784 5781 5779 5777 5775 5773 5771 5769 5767 5765 5763 5761
5880 5877 5874 5872 5868 5865 5862 5860 5858 5855 5852 5850 5847 5845 5842 5839 5836 5833 5831 5828 5824 5821 5818 5815 5812 5808 5805 5802 5799 5796 5793 5790 5787 5784 5781 5779 5776 5774 5771 5769 5767 5764 5762 5760
5881 5879 5876 5875 5871 5867 5866 5863 5860 5858 5855 5853 5850 5848 5846 5843 5840 5837 5835 5832 5829 5826 5823 5819 5816 5813 5809 5806 5803 5800 5796 5793 5790 5787 5784 5781 5778 5775 5772 5770 5767 5764 5762 5759
5883 5880 5878 5876 5872 5870 5868 5867 5862 5860 5858 5855 5853 5852 5849 5846 5843 5841 5838 5835 5833 5830 5827 5824 5820 5817 5814 5810 5807 5803 5800 5797 5793 5790 5787 5783 5780 5777 5774 5771 5768 5765 5762 5759
5883 5882 5882 5877 5874 5872 5870 5867 5864 5862 5860 5858 5856 5854 5851 5849 5847 5844 5841 5839 5836 5833 5830 5827 5824 5821 5817 5814 5810 5807 5803 5800 5796 5793 5790 5786 5783 5780 5776 5773 5769 5766 5763 5760
5885 5884 5881 5878 5875 5873 5871 5868 5866 5864 5862 5860 5858 5856 5854 5851 5849 5847 5844 5842 5839 5836 5833 5830 5827 5824 5821 5818 5814 5811 5807 5803 5800 5796 5793 5789 5786 5782 5779 5775 5772 5768 5765 5762
5883 5882 5880 5878 5876 5874 5872 5869 5867 5865 5863 5861 5859 5857 5855 5853 5851 5849 5847 5844 5842 5839 5836 5833 5830 5827 5824 5821 5818 5814 5811 5807 5803 5800 5796 5792 5789 5785 5782 5778 5775 5771 5768 5765
5882 5881 5880 5878 5876 5874 5872 5870 5868 5866 5864 5862 5860 5859 5857 5855 5853 5851 5848 5846 5844 5841 5838 5836 5833 5830 5827 5824 5821 5818 5814 5811 5807 5803 5799 5796 5792 5788 5785 5781 5778 5775 5771 5768
5881 5880 5879 5877 5876 5874 5872 5870 5868 5867 5865 5863 5861 5859 5857 5855 5854 5852 5849 5847 5845 5843 5840 5838 5835 5832 5829 5826 5823 5820 5817 5814 5810 5806 5803 5799 5795 5792 5788 5785 5781 5778 5775 5772
5878 5877 5876 5875 5874 5873 5871 5870 5868 5866 5865 5863 5861 5859 5857 5856 5854 5852 5850 5848 5846 5844 5841 5839 5836 5834 5831 5828 5826 5823 5820 5816 5813 5810 5806 5803 5799 5795 5792 5789 5785 5782 5779 5776
5875 5874 5874 5873 5872 5871 5870 5868 5867 5866 5864 5862 5861 5859 5857 5855 5854 5852 5850 5848 5846 5844 5842 5840 5837 5835 5832 5830 5827 5825 5822 5819 5816 5813 5809 5806 5802 5799 5795 5792 5789 5786 5783 5780
5871 5871 5870 5870 5869 5868 5867 5866 5865 5864 5863 5861 5860 5858 5856 5855 5853 5851 5849 5848 5846 5844 5842 5840 5838 5836 5833 5831 5828 5826 5823 5821 5818 5815 5812 5809 5805 5802 5799 5796 5793 5790 5787 5784
5866 5866 5866 5866 5865 5865 5864 5863 5863 5861 5860 5859 5858 5856 5855 5853 5852 5850 5848 5847 5845 5843 5842 5840 5838 5836 5834 5831 5829 5827 5824 5822 5819 5817 5814 5811 5808 5805 5802 5799 5796 5793 5791 5788
5859 5860 5860 5860 5860 5860 5860 5860 5859 5858 5857 5856 5855 5854 5852 5851 5850 5848 5847 5845 5844 5842 5840 5839 5837 5835 5833 5831 5829 5827 5825 5822 5820 5818 5815 5813 5810 5808 5805 5802 5799 5797 5794 5792
5853 5853 5854 5854 5855 5855 5855 5854 5854 5854 5853 5852 5851 5850 5849 5848 5847 5846 5844 5843 5842 5840 5839 5837 5836 5834 5832 5830 5829 5827 5825 5823 5820 5818 5816 5814 5812 5810 5807 5805 5802 5799 5797 5795
5845 5846 5847 5847 5848 5848 5848 5848 5848 5848 5848 5847 5847 5846 5845 5844 5843 5842 5841 5840 5839 5838 5836 5835 5834 5832 5831 5829 5827 5826 5824 5822 5820 5818 5816 5814 5812 5810 5808 5806 5804 5802 5799 5797
5836 5837 5838 5839 5840 5840 5841 5841 5842 5842 5842 5841 5841 5841 5840 5840 5839 5838 5837 5836 5835 5834 5833 5832 5831 5829 5828 5827 5825 5824 5822 5821 5819 5817 5815 5814 5812 5810 5808 5807 5805 5803 5801 5799
5825 5827 5828 5829 5830 5831 5832 5833 5834 5834 5834 5835 5835 5834 5834 5834 5833 5833 5832 5831 5831 5830 5829 5828 5827 5826 5825 5823 5822 5821 5820 5818 5817 5815 5814 5812 5811 5809 5808 5806 5805 5803 5801 5800
5813 5815 5817 5818 5820 5821 5822 5823 5824 5825 5826 5826 5827 5827 5827 5827 5827 5826 5826 5826 5825 5824 5823 5823 5822 5821 5820 5819 5818 5817 5816 5815 5814 5813 5811 5810 5809 5807 5806 5805 5803 5802 5801 5799
5800 5802 5804 5806 5808 5809 5811 5812 5814 5815 5816 5817 5818 5818 5818 5819 5819 5819 5819 5818 5818 5818 5817 5816 5816 5815 5815 5814 5813 5812 5811 5810 5809 5808 5808 5807 5805 5804 5803 5802 5801 5800 5799 5798
5785 5787 5790 5792 5794 5796 5798 5800 5802 5803 5805 5806 5807 5808 5808 5809 5809 5810 5810 5810 5810 5810 5809 5809 5809 5808 5808 5807 5807 5806 5806 5805 5804 5803 5802 5802 5801 5800 5799 5798 5797 5796 5795 5794
5769 5772 5774 5777 5779 5782 5784 5786 5788 5790 5792 5793 5795 5796 5797 5798 5798 5799 5799 5799 5800 5800 5800 5800 5800 5800 5800 5799 5799 5799 5798 5798 5798 5797 5796 5796 5795 5795 5794 5793 5792 5792 5791 5790
5752 5755 5758 5761 5763 5766 5768 5771 5773 5775 5777 5779 5780 5782 5783 5784 5785 5786 5787 5788 5788 5789 5789 5789 5789 5790 5790 5790 5790 5790 5790 5789 5789 5789 5789 5789 5788 5788 5787 5787 5786 5786 5785 5784
5733 5737 5740 5743 5746 5749 5751 5754 5756 5759 5761 5763 5765 5766 5768 5769 5771 5772 5773 5774 5775 5776 5776 5777 5777 5778 5778 5779 5779 5779 5779 5779 5780 5780 5780 5780 5779 5779 5779 5779 5779 5778 5778 5778